Hourly Data Report for February 19, 2021

KUGAARUK CLIMATE
NUNAVUT
Current Station Operator: ECCC - MSC

68°32'15.060" N
89°47'47.020" W
15.80 m
2303094
71407
NBB

Download Data

Hourly Data (February 2021)
Hourly Data Report for February 19, 2021
TIME
LST
Temp Definition
°C
Dew Point Definition
°C
Rel Hum Definition
%
Precip. Amount Definition
mm

Wind Dir Definition
10's deg

Wind Spd Definition
km/h
Visibility Definition
km
Stn Press Definition
kPa
Hmdx Definition


Wind Chill Definition


Weather Definition


00:00 -29.6 -32.8 74 0.0 24 32   100.03   -46 LegendNANA
01:00 -29.5 -32.7 74 0.0 25 32   100.04   -45 LegendNANA
02:00 -29.8 -33.0 74 0.0 25 33   100.05   -46 LegendNANA
03:00 -30.2 -33.4 73 0.0 26 28   100.06   -45 LegendNANA
04:00 -30.6 -33.9 73 0.0 24 34   100.05   -47 LegendNANA
05:00 -31.3 -34.5 73 0.0 26 24   100.14   -46 LegendNANA
06:00 -32.1 -35.4 72 0.0 26 18   100.21   -45 LegendNANA
07:00 -32.3 -35.7 72 0.0 26 21   100.22   -46 LegendNANA
08:00 -32.3 -35.7 72 0.0 25 23   100.24   -47 LegendNANA
09:00 -32.7 -36.2 71 0.0 26 14   100.29   -44 LegendNANA
10:00 -32.5 -36.0 71 0.0 25 10   100.34   -42 LegendNANA
11:00 -32.1 -36.1 68 0.3 27 8   100.40   -40 LegendNANA
12:00 -32.0 -35.7 70 0.0 27 10   100.45   -42 LegendNANA
13:00 -32.6 -36.4 69 0.0 27 12   100.52   -43 LegendNANA
14:00 -34.3 -38.2 68 0.0 23 7   100.55   -42 LegendNANA
15:00 -34.7 -38.4 69 0.0 3 2   100.58   -37 LegendNANA
16:00 -37.3 -40.8 70 0.0 5 4   100.62   -43 LegendNANA
17:00 -38.6 -42.1 69 0.0 4 8   100.64   -48 LegendNANA
18:00 -39.5 -43.0 69 0.0 4 10   100.64   -51 LegendNANA
19:00 -40.5 -44.0 68 0.0 6 8   100.63   -50 LegendNANA
20:00 -40.0 -43.5 69 0.0 5 9   100.63   -50 LegendNANA
21:00 -40.3 -43.9 68 0.0 4 7   100.59   -49 LegendNANA
22:00 -39.5 -43.2 68 0.6 7 10   100.53   -51 LegendNANA
23:00 -37.5 -41.0 70 0.3 7 18   100.46   -52 LegendNANA

Notes on Data Quality.

Legend

  • E = Estimated
  • M = Missing
  • NA = Not Available*
  • [empty] = Indicates an unobserved value
Date modified: